Location: Stigler
(35.2540°N, 95.1230°W)
Time: 19:47:46
(UTC-05:00)

Daily predictions for brighter satellites

Satellite Brightness Start Highest point End
(mag) Time Altitude Azimuth Time Altitude Azimuth Time Altitude Azimuth
Cosmos 1680 Rocket 4.5 20:59:08 10° N 21:03:50 32° ENE 21:08:32 10° SE
Cosmos 1441 Rocket 3.2 21:00:52 10° S 21:04:37 90° ESE 21:08:23 10° N
Cosmos 1538 Rocket 4.2 20:59:50 10° NNW 21:05:12 80° WSW 21:10:34 10° SSE
Cosmos 405 4.1 21:02:50 10° NNE 21:06:02 28° ENE 21:09:11 10° SE
In-Cosmos 22 4.5 21:01:48 10° S 21:07:34 82° W 21:13:21 10° N
FENGYUN 3A 3.7 21:02:23 10° SSE 21:07:49 89° ENE 21:13:16 10° NNW
Cosmos 2322 Rocket 2.8 21:03:37 10° NNW 21:09:07 60° WSW 21:14:38 10° S
Cosmos 923 Rocket 4.4 21:04:21 10° N 21:09:23 47° ENE 21:14:22 10° SE
DELTA 2 R/B(2) 4.4 21:09:17 10° W 21:10:50 33° NNW 21:12:27 10° ENE
USA 186 1.1 21:09:03 10° S 21:11:17 69° W 21:13:36 10° NNW
Cosmos 2266 Rocket 4.2 21:05:25 10° SSE 21:11:30 53° E 21:17:29 10° NNE
Cosmos 2322 4.2 21:06:37 10° N 21:12:08 47° ENE 21:17:35 10° SE
Cosmos 773 Rocket 4.0 21:10:06 10° NNW 21:15:19 71° ENE 21:20:32 10° SSE
Cosmos 2360 Rocket 2.5 21:11:11 10° NNW 21:16:43 53° ENE 21:22:14 10° SE
NOSS 3-1 (A) 3.8 21:13:06 10° S 21:18:25 39° ESE 21:24:09 10° NE
Meteor 2-20 4.4 21:13:46 10° S 21:19:53 76° E 21:26:01 10° N
Cosmos 1553 Rocket 4.2 21:14:20 10° N 21:20:44 83° W 21:27:00 10° S
SL-16 R/B 3.1 21:16:42 10° NNW 21:22:09 49° WSW 21:27:34 10° S
H-2A R/B 2.7 21:19:39 10° SE 21:23:54 42° ENE 21:28:09 10° N
Cosmos 1437 3.0 21:22:09 10° S 21:25:18 50° E 21:28:30 10° NNE
Cosmos 1328 Rocket 4.1 21:21:10 10° NNW 21:25:33 61° W 21:29:54 10° S
OTV 4 1.0 21:23:43 10° SW 21:26:30 36° SSE 21:29:16 10° E
Cosmos 1674 2.7 21:25:25 10° S 21:29:14 87° E 21:33:07 10° N
YAOGAN 11 4.2 21:27:27 10° S 21:31:46 80° WSW 21:36:09 10° NNW
Cosmos 1908 3.2 21:28:45 10° N 21:32:40 78° E 21:36:35 10° S
ATLAS 2AS CENTAUR R/B 3.8 21:35:01 10° SSE 21:40:43 25° ESE 21:46:46 10° NE
Cosmos 2227 Rocket 3.4 21:39:39 14° SE 21:42:34 21° E 21:46:39 10° NE
ALOS 3.9 21:39:41 10° SSW 21:43:51 33° W 21:48:03 10° NNW
ERBS 3.0 21:41:35 10° S 21:44:46 33° SE 21:47:57 10° ENE
ERS-1 Rocket 3.1 21:40:14 10° S 21:45:16 79° WSW 21:50:19 10° NNW
CZ-4 SHROUD 4.3 21:45:24 20° ESE 21:46:48 29° ENE 21:49:34 10° NNE
Tiangong 1 2.6 21:44:04 10° W 21:47:00 38° NNW 21:49:56 10° NE
OAO 2 Rocket 3.4 21:42:23 10° WSW 21:47:40 69° SSE 21:52:58 10° E
Cosmos 1300 3.7 21:44:30 10° NNE 21:47:56 30° ENE 21:49:46 20° SE
Envisat 3.0 21:45:26 13° SSE 21:49:55 67° ENE 21:54:57 10° N
Sakura Rocket 4.1 21:51:04 10° SW 21:54:16 20° SSE 21:54:47 19° SSE
Meteor 1-11 4.3 21:50:47 10° S 21:56:26 58° E 22:02:03 10° NNE
Cosmos 2151 3.4 21:53:34 10° SSW 21:57:42 62° W 22:01:53 10° N
Nadezhda 2 Rocket 4.4 21:54:50 10° S 22:00:59 89° E 22:07:07 10° N
Cosmos 2058 2.8 21:57:50 10° S 22:01:56 83° E 22:06:02 10° N
Hubble Space Telescope 2.0 22:00:13 10° SW 22:03:31 23° SSE 22:03:43 23° SSE
Delta 2 Rocket 2.8 21:59:46 10° W 22:03:31 88° N 22:05:23 25° E
NOSS 3-1 (C) 3.7 21:58:00 10° SW 22:03:46 69° WNW 22:10:08 10° NNE
Cosmos 2333 Rocket 3.6 21:59:57 10° N 22:04:35 24° ENE 22:07:32 17° E
ARGOS 4.0 22:03:31 21° ESE 22:06:17 34° ENE 22:11:06 10° N
Cosmos 1937 Rocket 3.6 22:03:27 11° S 22:08:14 52° ESE 22:13:18 10° NNE
Cosmos 2297 Rocket 3.2 22:07:58 23° ESE 22:09:09 24° E 22:13:36 10° NE
Cosmos 1455 4.4 22:08:22 10° NE 22:10:03 12° ENE 22:10:08 12° ENE
Cosmos 2112 Rocket 4.2 22:04:58 10° NNW 22:10:12 69° WSW 22:14:09 18° S
Cosmos 990 Rocket 4.3 22:13:16 24° SSE 22:15:48 42° ESE 22:20:38 10° NNE
Cosmos 2219 Rocket 2.9 22:11:08 10° N 22:16:20 38° ENE 22:18:54 25° ESE
COSMOS 2428 2.7 22:10:59 10° NNW 22:16:42 82° ENE 22:20:00 26° SSE
Cosmos 1726 2.2 22:13:56 10° N 22:17:41 58° E 22:18:49 39° SE
PSLV R/B 3.1 22:17:20 41° S 22:18:16 79° WSW 22:21:19 10° NNW
Cosmos 2298 Rocket 4.3 22:14:37 10° SSW 22:19:54 70° WNW 22:25:13 10° NNE
Sich 1 2.9 22:17:18 22° S 22:20:10 79° E 22:24:34 10° N
Cosmos 1939 Rocket 4.2 22:19:34 13° SSW 22:22:40 35° W 22:26:16 10° NNW
Cosmos 1633 Rocket 2.9 22:24:02 24° S 22:26:40 88° E 22:31:03 10° N
Cosmos 2242 Rocket 3.7 22:26:10 10° N 22:30:37 60° E 22:31:58 41° SE
Meteor 1-4 Rocket 2.6 22:27:06 10° N 22:30:46 57° E 22:31:14 52° ESE
CZ-4B R/B 3.5 22:26:12 10° NNE 22:31:28 89° ESE 22:35:20 18° SSW
SPOT 5 3.3 22:30:38 23° S 22:33:23 55° W 22:38:07 10° NNW
USA 245 3.5 22:36:59 34° N 22:36:59 34° N 22:38:27 10° N
SL-23 DEB 3.7 22:32:13 10° NW 22:36:39 61° SW 22:37:10 53° S
DELTA 2 R/B (1) 4.2 22:33:15 10° W 22:38:26 41° SSW 22:40:01 33° S
Cosmos 1980 4.3 22:33:41 10° N 22:39:02 43° ENE 22:40:54 33° ESE
Cosmos 292 Rocket 3.6 22:40:33 10° NNW 22:45:19 84° ENE 22:46:35 50° SSE
FALCON 9 R/B 4.2 22:14:05 10° W 22:47:35 87° S 22:54:02 17° E
H-2A R/B 2.8 22:46:30 35° ESE 22:47:50 41° ENE 22:52:55 10° N
Cosmos 2237 Rocket 2.6 22:45:33 10° N 22:51:05 50° ENE 22:52:39 39° ESE
Cosmos 1271 Rocket 2.7 22:47:57 10° N 22:51:48 78° W 22:52:15 67° SSW
DELTA 2 DEB (DPAF) 4.2 22:52:03 53° ESE 22:52:39 58° ENE 22:57:03 10° N
Cosmos 2082 3.6 22:49:35 21° SSW 22:53:29 88° ESE 22:59:14 10° NNE
Cosmos 1346 4.3 22:55:02 37° NNE 22:55:02 37° NNE 22:57:00 10° N
CZ-4C R/B 3.5 22:54:41 48° NE 22:54:41 48° NE 22:57:36 10° N
Landsat 7 3.9 22:53:36 50° ESE 22:54:23 58° ENE 22:59:03 10° N
Iridium 2 3.6 22:54:33 72° SSW 22:54:52 81° W 22:58:44 10° N
Cosmos 1626 2.4 22:56:29 58° NE 22:56:29 58° NE 22:59:44 10° NNE
Cosmos 1703 4.0 22:59:02 37° SW 23:00:08 49° W 23:03:57 10° N
Cosmos 2360 Rocket 4.4 22:56:35 10° WNW 23:00:12 18° W 23:03:48 10° SW
SPOT 1/Viking Rocket 3.9 22:58:29 36° SSW 23:00:24 60° W 23:05:31 10° NNW
Cosmos 1125 Rocket 3.8 23:00:29 46° ESE 23:00:34 46° ESE 23:05:38 10° NNE
NOAA 11 4.2 22:59:50 43° S 23:01:40 76° WSW 23:07:09 10° NNW
YAOGAN 6 4.0 23:02:03 28° WSW 23:02:42 30° W 23:05:56 10° NW
OTV 4 2.5 22:59:51 10° W 23:01:15 24° W 23:01:15 24° W
Terra 1.9 23:09:58 57° E 23:10:15 58° ENE 23:14:55 10° N
SL-08 RB Rocket 3.9 23:11:03 54° SW 23:11:41 61° W 23:16:08 10° NNW
Cosmos 1470 Rocket 4.4 23:19:29 38° WSW 23:20:24 45° W 23:24:34 10° N
Cosmos 1933 Rocket 4.4 23:20:23 39° WSW 23:21:23 47° W 23:25:43 10° N
Spot 4 4.0 23:21:30 59° ENE 23:21:34 59° ENE 23:26:20 10° N
Tiangong 1 3.6 23:21:44 10° NW 23:24:05 19° N 23:24:22 19° N
Cosmos 2227 Rocket 3.1 23:21:20 13° SW 23:26:12 46° WNW 23:31:39 10° N
Nadezhda 1 Rocket 4.2 23:24:16 10° NNW 23:30:16 63° W 23:32:01 45° SSW
ATLAS 2AS CENTAUR R/B 3.3 23:23:42 10° SW 23:31:02 63° NW 23:39:00 10° NNE
OAO 2 Rocket 3.3 23:27:11 10° W 23:32:32 88° S 23:32:37 87° ESE
NOSS 0 Rocket 4.3 23:30:20 10° NNW 23:36:15 51° WSW 23:37:28 45° SW
Lacrosse 4 Rocket 2.4 23:36:24 10° NNW 23:40:03 44° NNE 23:40:03 44° NNE
ATLAS 3B R/B 2.7 23:38:31 10° NNW 23:45:26 66° ENE 23:46:35 56° ESE
Cosmos 1455 3.8 23:42:25 10° NNW 23:45:10 30° WNW 23:45:10 30° WNW
SL-16 R/B 2.3 23:40:28 10° NNW 23:46:08 64° ENE 23:46:17 63° ENE
Cosmos 2221 Rocket 4.2 23:43:12 10° N 23:46:49 52° NNE 23:46:49 52° NNE
Cosmos 1709 Rocket 4.0 23:47:29 59° SW 23:48:36 74° W 23:54:42 10° N
Cosmos 2333 Rocket 2.9 23:43:34 10° NW 23:48:58 43° WSW 23:49:33 42° WSW
Cosmos 1933 4.4 23:48:31 10° N 23:51:19 43° N 23:51:19 43° N
Cosmos 2297 Rocket 3.3 23:49:41 21° WSW 23:52:53 39° WNW 23:58:11 10° N
